Hourly Weather Barlad

Today, 7 May, Friday

Time Temperature Precipitation Wind Pressure Humidity
00:00 +12°C° 0 mm 1 mps 748 mmHg 79%
01:00 +12°C° 0 mm 1 mps 748 mmHg 81%
02:00 +11°C° 0 mm 1 mps 748 mmHg 83%
03:00 +11°C° 0 mm 1 mps 748 mmHg 85%
04:00 +10°C° 0 mm 2 mps 748 mmHg 87%
05:00 +10°C° 0 mm 2 mps 747 mmHg 89%
06:00 +12°C° 0 mm 2 mps 748 mmHg 85%
07:00 +13°C° 0 mm 3 mps 748 mmHg 82%
08:00 +14°C° 0 mm 4 mps 748 mmHg 78%
09:00 +17°C° 0 mm 4 mps 747 mmHg 72%
10:00 +17°C° 0 mm 5 mps 747 mmHg 66%
11:00 +20°C° 0 mm 6 mps 747 mmHg 60%
12:00 +21°C° 0 mm 6 mps 746 mmHg 56%
13:00 +21°C° 0 mm 7 mps 746 mmHg 53%
14:00 +22°C° 0 mm 7 mps 745 mmHg 49%
15:00 +22°C° 0 mm 7 mps 744 mmHg 51%
16:00 +22°C° 0 mm 6 mps 744 mmHg 53%
17:00 +22°C° 0 mm 6 mps 743 mmHg 54%
18:00 +21°C° 0 mm 5 mps 743 mmHg 55%
19:00 +20°C° 0 mm 5 mps 743 mmHg 56%
20:00 +19°C° 0 mm 4 mps 743 mmHg 57%
21:00 +18°C° 0 mm 3 mps 743 mmHg 60%
22:00 +17°C° 0 mm 3 mps 743 mmHg 64%
23:00 +16°C° 0 mm 2 mps 743 mmHg 68%

Tomorrow, 8 May, Saturday

Time Temperature Precipitation Wind Pressure Humidity
00:00 +16°C° 0.1 mm 2 mps 743 mmHg 70%
01:00 +16°C° 0.1 mm 2 mps 744 mmHg 72%
02:00 +14°C° 0.1 mm 3 mps 744 mmHg 74%
03:00 +14°C° 0.1 mm 3 mps 745 mmHg 76%
04:00 +13°C° 0.1 mm 4 mps 745 mmHg 79%
05:00 +12°C° 0.1 mm 5 mps 746 mmHg 81%
06:00 +10°C° 0 mm 6 mps 747 mmHg 78%
07:00 +9°C° 0 mm 7 mps 748 mmHg 74%
08:00 +7°C° 0 mm 8 mps 750 mmHg 70%
09:00 +9°C° 0 mm 7 mps 750 mmHg 63%
10:00 +10°C° 0 mm 7 mps 750 mmHg 56%
11:00 +11°C° 0 mm 6 mps 751 mmHg 49%
12:00 +13°C° 0 mm 6 mps 751 mmHg 46%
13:00 +14°C° 0 mm 6 mps 751 mmHg 43%
14:00 +15°C° 0 mm 6 mps 751 mmHg 40%
15:00 +15°C° 0 mm 6 mps 751 mmHg 41%
16:00 +14°C° 0 mm 5 mps 751 mmHg 42%
17:00 +14°C° 0 mm 5 mps 751 mmHg 42%
18:00 +13°C° 0 mm 5 mps 752 mmHg 46%
19:00 +12°C° 0 mm 4 mps 753 mmHg 50%
20:00 +11°C° 0 mm 4 mps 754 mmHg 54%
21:00 +10°C° 0 mm 3 mps 754 mmHg 57%
22:00 +10°C° 0 mm 2 mps 755 mmHg 59%
23:00 +10°C° 0 mm 1 mps 756 mmHg 61%

Day after tomorrow, 9 May, Sunday

Time Temperature Precipitation Wind Pressure Humidity
00:00 +10°C° 0 mm 1 mps 756 mmHg 64%
01:00 +9°C° 0 mm 1 mps 756 mmHg 68%
02:00 +8°C° 0 mm 1 mps 756 mmHg 71%
03:00 +8°C° 0 mm 1 mps 756 mmHg 74%
04:00 +7°C° 0 mm 1 mps 757 mmHg 76%
05:00 +7°C° 0 mm 1 mps 757 mmHg 79%
06:00 +9°C° 0 mm 1 mps 757 mmHg 70%
07:00 +9°C° 0 mm 2 mps 758 mmHg 62%
08:00 +12°C° 0 mm 2 mps 758 mmHg 54%
09:00 +14°C° 0 mm 2 mps 758 mmHg 49%
10:00 +15°C° 0 mm 2 mps 758 mmHg 44%
11:00 +16°C° 0 mm 1 mps 758 mmHg 39%
12:00 +18°C° 0 mm 1 mps 758 mmHg 37%
13:00 +18°C° 0 mm 1 mps 758 mmHg 35%
14:00 +19°C° 0 mm 1 mps 758 mmHg 32%
15:00 +19°C° 0 mm 1 mps 757 mmHg 33%
16:00 +18°C° 0 mm 2 mps 757 mmHg 33%
17:00 +18°C° 0 mm 2 mps 757 mmHg 34%
18:00 +16°C° 0 mm 2 mps 757 mmHg 39%
19:00 +15°C° 0 mm 2 mps 758 mmHg 44%
20:00 +13°C° 0 mm 2 mps 758 mmHg 50%
21:00 +12°C° 0 mm 2 mps 758 mmHg 52%
22:00 +12°C° 0 mm 2 mps 758 mmHg 54%
23:00 +10°C° 0 mm 2 mps 758 mmHg 56%

10 May, Monday

Time Temperature Precipitation Wind Pressure Humidity
00:00 +9°C° 0 mm 3 mps 758 mmHg 63%
01:00 +9°C° 0 mm 3 mps 758 mmHg 70%
02:00 +8°C° 0 mm 3 mps 758 mmHg 77%
03:00 +8°C° 0 mm 3 mps 758 mmHg 79%
04:00 +7°C° 0 mm 3 mps 758 mmHg 80%
05:00 +7°C° 0 mm 3 mps 758 mmHg 82%
06:00 +9°C° 0 mm 3 mps 758 mmHg 73%
07:00 +11°C° 0 mm 4 mps 758 mmHg 64%
08:00 +13°C° 0 mm 5 mps 758 mmHg 55%
09:00 +14°C° 0 mm 5 mps 758 mmHg 50%
10:00 +16°C° 0 mm 5 mps 758 mmHg 45%
11:00 +17°C° 0 mm 6 mps 758 mmHg 40%
12:00 +17°C° 0 mm 5 mps 758 mmHg 39%
13:00 +19°C° 0 mm 5 mps 757 mmHg 38%
14:00 +20°C° 0 mm 5 mps 757 mmHg 36%
15:00 +19°C° 0 mm 5 mps 757 mmHg 37%
16:00 +19°C° 0 mm 4 mps 756 mmHg 37%
17:00 +19°C° 0 mm 4 mps 756 mmHg 37%
18:00 +17°C° 0 mm 4 mps 756 mmHg 43%
19:00 +16°C° 0 mm 3 mps 756 mmHg 48%
20:00 +14°C° 0 mm 2 mps 757 mmHg 53%
21:00 +13°C° 0 mm 2 mps 757 mmHg 56%
22:00 +12°C° 0 mm 2 mps 757 mmHg 59%
23:00 +10°C° 0 mm 2 mps 757 mmHg 62%

11 May, Tuesday

Time Temperature Precipitation Wind Pressure Humidity
00:00 +10°C° 0 mm 2 mps 757 mmHg 65%
01:00 +9°C° 0 mm 2 mps 757 mmHg 67%
02:00 +9°C° 0 mm 1 mps 756 mmHg 69%
03:00 +9°C° 0 mm 1 mps 756 mmHg 70%
04:00 +9°C° 0 mm 1 mps 756 mmHg 70%
05:00 +9°C° 0 mm 1 mps 756 mmHg 70%
06:00 +11°C° 0 mm 1 mps 756 mmHg 65%
07:00 +13°C° 0 mm 1 mps 756 mmHg 59%
08:00 +15°C° 0 mm 2 mps 756 mmHg 54%
09:00 +16°C° 0 mm 2 mps 756 mmHg 50%
10:00 +17°C° 0 mm 2 mps 756 mmHg 46%
11:00 +19°C° 0 mm 3 mps 756 mmHg 43%
12:00 +19°C° 0 mm 3 mps 755 mmHg 40%
13:00 +20°C° 0 mm 3 mps 755 mmHg 37%
14:00 +21°C° 0 mm 3 mps 754 mmHg 34%
15:00 +21°C° 0 mm 3 mps 754 mmHg 35%
16:00 +21°C° 0 mm 3 mps 754 mmHg 35%
17:00 +21°C° 0 mm 3 mps 753 mmHg 36%
18:00 +19°C° 0 mm 2 mps 753 mmHg 42%
19:00 +17°C° 0 mm 2 mps 753 mmHg 48%
20:00 +16°C° 0 mm 1 mps 753 mmHg 54%
21:00 +15°C° 0 mm 1 mps 753 mmHg 56%
22:00 +14°C° 0 mm 1 mps 753 mmHg 58%
23:00 +14°C° 0 mm 1 mps 753 mmHg 60%

12 May, Wednesday

Time Temperature Precipitation Wind Pressure Humidity
00:00 +13°C° 0 mm 1 mps 752 mmHg 61%
01:00 +13°C° 0 mm 1 mps 752 mmHg 62%
02:00 +12°C° 0 mm 0 mps 751 mmHg 63%
03:00 +11°C° 0 mm 0 mps 751 mmHg 64%
04:00 +12°C° 0 mm 1 mps 751 mmHg 66%
05:00 +12°C° 0 mm 1 mps 751 mmHg 67%
06:00 +14°C° 0 mm 1 mps 751 mmHg 65%
07:00 +16°C° 0 mm 2 mps 751 mmHg 63%
08:00 +18°C° 0 mm 2 mps 751 mmHg 60%
09:00 +19°C° 0 mm 3 mps 750 mmHg 58%
10:00 +21°C° 0 mm 3 mps 750 mmHg 56%
11:00 +22°C° 0 mm 4 mps 749 mmHg 54%
12:00 +22°C° 0.3 mm 4 mps 749 mmHg 55%
13:00 +22°C° 0.3 mm 4 mps 749 mmHg 56%
14:00 +22°C° 0.3 mm 5 mps 748 mmHg 57%
15:00 +21°C° 0.1 mm 5 mps 748 mmHg 59%
16:00 +21°C° 0.1 mm 5 mps 747 mmHg 61%
17:00 +20°C° 0.1 mm 5 mps 747 mmHg 63%
18:00 +19°C° 0 mm 5 mps 747 mmHg 67%
19:00 +18°C° 0 mm 4 mps 747 mmHg 70%
20:00 +17°C° 0 mm 4 mps 747 mmHg 73%
21:00 +16°C° 0 mm 3 mps 747 mmHg 74%
22:00 +16°C° 0 mm 3 mps 747 mmHg 76%
23:00 +14°C° 0 mm 3 mps 746 mmHg 77%
Show more

We Need Your Consent

Meteoprog and our Service Providers may store and access personal data such as cookies, device identifiers or other similar technologies on your device and process such data to personalise content and ads, as well as provide social media features and to analyse the traffic.

  • Store and/or access information on your device

    Cookies, device identifiers or other information can be stored or accessed on your device for the purposes indicated above.

  • Personalised ads and content, ad and content measurement, audience insights, and products development

    Ads and content can be personalised based on a profile. More data can be added to better personalise ads and content. Ad and content performance can be measured. Insights about the audience who saw the ads and content can be derived. Such data can be used to develop or improve user’s experience, systems and software.

By clicking ‘I Agree’ you will allow the use of indicated cookies, device identifiers, web beacons or other similar technologies. Your settings can be changed in the browser on your device.

For certain purposes, legitimate interests may be relied on, rather than consent. You can read more about this in our Privacy and Cookie Policy.